Weather History for KRSV - April, 2014

Change the Weather History Date:

Tuesday, April 15, 2014

  Actual Average (KLWV) Record (KLWV)
Temperature  
Mean Temperature 38 °F 56 °F  
Max Temperature 44 °F 67 °F 88 °F (2006)
Min Temperature 32 °F 45 °F 30 °F (2008)
Degree Days  
Heating Degree Days 28 10  
Month to date heating degree days 185  
Since 1 July heating degree days 4482  
Cooling Degree Days 0 1  
Month to date cooling degree days 9  
Year to date cooling degree days 11  
Moisture  
Dew Point 28 °F    
Average Humidity 70    
Maximum Humidity 94    
Minimum Humidity 46    
Precipitation  
Precipitation 0.02 in 0.12 in 1.22 in (1998)
Month to date precipitation 1.69  
Year to date precipitation 9.51  
Sea Level Pressure  
Sea Level Pressure 30.15 in    
Wind  
Wind Speed 12 mph (NNW)    
Max Wind Speed 21 mph    
Max Gust Speed 26 mph    
Visibility 10 miles    
Events Snow    
T = Trace of Precipitation, MM = Missing Value Source: NWS Daily Summary

Daily Weather History Graph

Daily Weather History Graph

Search for Another Location

Airport or City:

Trip Planner

Search our weather history database for the weather conditions in past years. The results will help you decide how hot, cold, wet, or windy it might be!

Date:

Astronomy

Apr. 15, 2014 Rise Set
Actual Time 6:13 AM CDT 7:27 PM CDT
Civil Twilight 5:46 AM CDT 7:55 PM CDT
Nautical Twilight 5:13 AM CDT 8:28 PM CDT
Astronomical Twilight 4:38 AM CDT 9:03 PM CDT
Moon 8:08 PM CDT (4/15) 6:21 AM CDT (4/15)
Length of Visible Light 14h 09m
Length of Day
13h 13m
Full, 100% of the Moon is Illuminated
Apr 15
Full
Apr 22
Last Quarter
Apr 29
New
May 6
First Quarter
May 14
Full

Hourly Weather History & Observations

Time (CDT) Temp. Windchill Dew Point Humidity Pressure Visibility Wind Dir Wind Speed Gust Speed Precip Events Conditions
12:15 AM 37.4 °F 27.8 °F 34.2 °F 88% 30.00 in 10.0 mi NNW 17.3 mph 23.0 mph N/A   Overcast
12:35 AM 37.4 °F 28.2 °F 33.1 °F 84% 30.01 in 10.0 mi NNW 16.1 mph - N/A   Overcast
12:55 AM 36.7 °F 26.9 °F 33.8 °F 89% 30.01 in 10.0 mi NNW 17.3 mph 26.5 mph N/A   Overcast
1:15 AM 36.5 °F 27.8 °F 33.6 °F 89% 30.01 in 5.0 mi NW 13.8 mph 23.0 mph N/A Snow Light Snow
1:35 AM 35.6 °F 27.1 °F 34.0 °F 94% 30.01 in 10.0 mi NNW 12.7 mph 20.7 mph N/A   Overcast
1:55 AM 36.0 °F 26.7 °F 33.3 °F 90% 30.01 in 10.0 mi NNW 15.0 mph 20.7 mph N/A   Overcast
2:15 AM 36.1 °F 28.2 °F 32.9 °F 88% 30.01 in 10.0 mi NW 11.5 mph 17.3 mph N/A   Overcast
2:35 AM 36.1 °F 26.5 °F 32.2 °F 86% 30.02 in 10.0 mi NNW 16.1 mph 21.9 mph N/A   Overcast
2:55 AM 36.0 °F 28.5 °F 32.0 °F 86% 30.02 in 10.0 mi NNW 10.4 mph - N/A   Overcast
3:15 AM 35.6 °F 28.0 °F 31.5 °F 85% 30.02 in 10.0 mi NNW 10.4 mph - N/A   Mostly Cloudy
3:35 AM 35.8 °F 29.4 °F 31.8 °F 86% 30.02 in 10.0 mi NNW 8.1 mph - N/A   Mostly Cloudy
3:55 AM 35.8 °F 28.3 °F 31.8 °F 86% 30.02 in 10.0 mi NNW 10.4 mph - N/A   Overcast
4:15 AM 35.8 °F 26.9 °F 31.5 °F 84% 30.02 in 10.0 mi NNW 13.8 mph - N/A   Overcast
4:35 AM 34.9 °F 25.3 °F 31.1 °F 86% 30.03 in 10.0 mi NNW 15.0 mph 19.6 mph N/A   Scattered Clouds
4:55 AM 34.3 °F 25.5 °F 29.3 °F 82% 30.04 in 10.0 mi NNW 12.7 mph - N/A   Clear
5:15 AM 34.0 °F 24.6 °F 28.9 °F 82% 30.04 in 10.0 mi NNW 13.8 mph 17.3 mph N/A   Clear
5:35 AM 33.8 °F 24.8 °F 28.8 °F 82% 30.05 in 10.0 mi NNW 12.7 mph 18.4 mph N/A   Clear
5:55 AM 33.8 °F 26.4 °F 28.8 °F 82% 30.07 in 10.0 mi NNW 9.2 mph 16.1 mph N/A   Clear
6:15 AM 33.4 °F 24.8 °F 28.8 °F 83% 30.08 in 10.0 mi NW 11.5 mph 17.3 mph N/A   Scattered Clouds
6:55 AM 33.4 °F 24.8 °F 28.0 °F 81% 30.10 in 10.0 mi NNW 11.5 mph 18.4 mph N/A   Clear
7:15 AM 33.8 °F 24.8 °F 28.2 °F 80% 30.11 in 10.0 mi NNW 12.7 mph - N/A   Clear
7:35 AM 34.2 °F 24.4 °F 28.2 °F 79% 30.12 in 10.0 mi NNW 15.0 mph - N/A   Clear
7:55 AM 34.7 °F 24.7 °F 28.2 °F 77% 30.13 in 10.0 mi NNW 16.1 mph 19.6 mph N/A   Clear
8:15 AM 35.2 °F 25.8 °F 27.7 °F 74% 30.14 in 10.0 mi NNW 15.0 mph 20.7 mph N/A   Clear
8:40 AM 36.5 °F 26.7 °F 28.0 °F 71% 30.14 in 10.0 mi NNW 17.3 mph 21.9 mph N/A   Scattered Clouds
8:55 AM 36.3 °F 28.4 °F 28.0 °F 72% 30.15 in 10.0 mi NNW 11.5 mph - N/A   Scattered Clouds
9:15 AM 38.3 °F 28.7 °F 27.9 °F 66% 30.15 in 10.0 mi North 18.4 mph 23.0 mph N/A   Mostly Cloudy
9:35 AM 37.4 °F 28.9 °F 28.0 °F 69% 30.16 in 10.0 mi NW 13.8 mph 19.6 mph N/A   Overcast
9:55 AM 38.1 °F 29.1 °F 26.4 °F 63% 30.17 in 10.0 mi NW 16.1 mph 23.0 mph N/A   Mostly Cloudy
10:15 AM 36.7 °F 29.4 °F 27.5 °F 69% 30.18 in 10.0 mi NNW 10.4 mph - N/A   Mostly Cloudy
10:35 AM 39.2 °F 29.3 °F 23.4 °F 53% 30.18 in 10.0 mi North 20.7 mph 26.5 mph N/A   Scattered Clouds
10:55 AM 39.2 °F 30.2 °F 25.7 °F 58% 30.19 in 10.0 mi North 17.3 mph 24.2 mph N/A   Scattered Clouds
11:15 AM 39.9 °F 31.4 °F 24.3 °F 54% 30.19 in 10.0 mi North 16.1 mph 19.6 mph N/A   Scattered Clouds
11:35 AM 39.7 °F 32.3 °F 24.3 °F 54% 30.19 in 10.0 mi NNW 12.7 mph 23.0 mph N/A   Mostly Cloudy
11:55 AM 40.3 °F 33.9 °F 25.3 °F 55% 30.19 in 10.0 mi NW 10.4 mph - N/A   Mostly Cloudy
12:35 PM 41.0 °F 33.5 °F 25.2 °F 53% 30.19 in 10.0 mi NNW 13.8 mph 24.2 mph N/A   Mostly Cloudy
12:55 PM 40.5 °F 32.8 °F 22.8 °F 49% 30.19 in 10.0 mi North 13.8 mph 23.0 mph N/A   Mostly Cloudy
1:15 PM 41.4 °F 34.3 °F 24.4 °F 51% 30.20 in 10.0 mi NNW 12.7 mph 20.7 mph N/A   Mostly Cloudy
1:35 PM 42.4 °F 35.0 °F 25.7 °F 52% 30.19 in 10.0 mi North 15.0 mph 19.6 mph N/A   Mostly Cloudy
1:55 PM 42.8 °F 37.0 °F 25.0 °F 49% 30.20 in 10.0 mi NW 10.4 mph 21.9 mph N/A   Scattered Clouds
2:15 PM 41.4 °F 35.7 °F 23.9 °F 50% 30.20 in 10.0 mi North 9.2 mph 17.3 mph N/A   Mostly Cloudy
2:35 PM 41.7 °F 34.1 °F 24.6 °F 51% 30.21 in 10.0 mi NNW 15.0 mph 18.4 mph N/A   Overcast
2:55 PM 42.4 °F 36.5 °F 23.5 °F 47% 30.20 in 10.0 mi NW 10.4 mph - N/A   Mostly Cloudy
3:15 PM 42.6 °F 35.6 °F 25.0 °F 50% 30.20 in 10.0 mi NNW 13.8 mph 17.3 mph N/A   Mostly Cloudy
3:35 PM 42.3 °F 36.8 °F 23.0 °F 47% 30.20 in 10.0 mi WNW 9.2 mph - N/A   Mostly Cloudy
3:55 PM 42.8 °F 37.0 °F 24.8 °F 49% 30.21 in 10.0 mi NW 10.4 mph - N/A   Overcast
4:15 PM 41.9 °F 36.3 °F 25.2 °F 52% 30.21 in 10.0 mi NW 9.2 mph - N/A   Overcast
4:55 PM 42.8 °F 37.0 °F 26.2 °F 52% 30.21 in 10.0 mi NNW 10.4 mph - N/A   Scattered Clouds
5:15 PM 43.3 °F 37.7 °F 23.9 °F 46% 30.21 in 10.0 mi WNW 10.4 mph 17.3 mph N/A   Scattered Clouds
5:35 PM 43.9 °F 38.8 °F 24.8 °F 47% 30.22 in 10.0 mi NNW 9.2 mph - N/A   Mostly Cloudy
5:55 PM 43.7 °F 42.1 °F 24.6 °F 47% 30.21 in 10.0 mi North 3.5 mph - N/A   Mostly Cloudy
6:15 PM 43.0 °F 39.5 °F 24.3 °F 48% 30.22 in 10.0 mi North 5.8 mph - N/A   Mostly Cloudy
6:35 PM 42.8 °F 39.3 °F 25.9 °F 51% 30.22 in 10.0 mi North 5.8 mph - N/A   Mostly Cloudy
6:55 PM 41.7 °F 38.8 °F 26.2 °F 54% 30.22 in 10.0 mi North 4.6 mph - N/A   Mostly Cloudy
7:15 PM 40.5 °F 37.3 °F 25.7 °F 56% 30.22 in 10.0 mi North 4.6 mph - N/A   Scattered Clouds
7:35 PM 39.6 °F 37.4 °F 25.9 °F 58% 30.22 in 10.0 mi North 3.5 mph - N/A   Clear
7:55 PM 39.2 °F - 29.8 °F 69% 30.23 in 10.0 mi Calm Calm - N/A   Clear
8:15 PM 38.7 °F - 26.6 °F 62% 30.23 in 10.0 mi Calm Calm - N/A   Clear
8:35 PM 36.7 °F - 31.6 °F 82% 30.24 in 10.0 mi Calm Calm - N/A   Clear
8:55 PM 36.1 °F - 31.1 °F 82% 30.24 in 10.0 mi Calm Calm - N/A   Clear
9:15 PM 36.1 °F - 29.5 °F 77% 30.25 in 10.0 mi Calm Calm - N/A   Clear
9:35 PM 34.7 °F - 31.5 °F 88% 30.25 in 10.0 mi Calm Calm - N/A   Clear
9:55 PM 34.7 °F - 31.6 °F 89% 30.25 in 10.0 mi Calm Calm - N/A   Clear
10:15 PM 33.3 °F 30.2 °F 29.7 °F 87% 30.25 in 10.0 mi SE 3.5 mph - N/A   Clear
10:35 PM 34.2 °F - 28.8 °F 81% 30.25 in 10.0 mi Calm Calm - N/A   Clear
10:55 PM 33.1 °F - 30.6 °F 90% 30.25 in 10.0 mi Calm Calm - N/A   Clear
11:15 PM 32.4 °F - 30.2 °F 92% 30.26 in 10.0 mi Calm Calm - N/A   Clear
11:35 PM 32.0 °F - 30.4 °F 94% 30.26 in 10.0 mi Calm Calm - N/A   Clear
11:55 PM 32.4 °F - 29.1 °F 88% 30.27 in 10.0 mi Calm Calm - N/A   Clear